Weather History for Bentonville, AR

Change the Weather History Date:

Tuesday, August 13, 2013

  Actual Average Record
Temperature  
Mean Temperature 70 °F -  
Max Temperature 73 °F 87 °F 102 °F (1954)
Min Temperature 68 °F 64 °F 47 °F (1967)
Cooling Degree Days 6    
Growing Degree Days 20 (Base 50)    
Moisture  
Dew Point 66 °F    
Average Humidity 83    
Maximum Humidity 94    
Minimum Humidity 73    
Precipitation  
Precipitation 0.00 in - - ()
Sea Level Pressure  
Sea Level Pressure 30.04 in    
Wind  
Wind Speed 5 mph (NNE)    
Max Wind Speed 9 mph    
Max Gust Speed -    
Visibility 10 miles    
Events      
Averages and records for this station are not official NWS values.
T = Trace of Precipitation, MM = Missing Value Source: NWS Daily Summary

Daily Weather History Graph

Daily Weather History Graph

Search for Another Location

Airport:

Trip Planner

Search our weather history database for the weather conditions in past years. The results will help you decide how hot, cold, wet, or windy it might be!

Date:

Astronomy

Aug. 13, 2013 Rise Set
Actual Time 6:33 AM CDT 8:09 PM CDT
Civil Twilight 6:05 AM CDT 8:36 PM CDT
Nautical Twilight 5:32 AM CDT 9:09 PM CDT
Astronomical Twilight 4:57 AM CDT 9:44 PM CDT
Moon 1:15 PM CDT (8/13) 11:59 PM CDT (8/13)
Length of Visible Light 14h 30m
Length of Day
13h 36m
Waxing Crescent, 42% of the Moon is Illuminated
Aug 13
Waxing Crescent
Aug 14
First Quarter
Aug 20
Full
Aug 28
Last Quarter
Sep 5
New

Hourly Weather History & Observations

Time (CDT) Temp. Dew Point Humidity Pressure Visibility Wind Dir Wind Speed Gust Speed Precip Events Conditions
4:35 PM 73.4 °F 69.8 °F 88% 30.02 in 10.0 mi NNE 4.6 mph - N/A   Clear
4:55 PM 73.4 °F 71.6 °F 94% 30.01 in 10.0 mi NE 4.6 mph - N/A   Partly Cloudy
5:15 PM 73.4 °F 71.6 °F 94% 30.01 in 10.0 mi NNE 6.9 mph - N/A   Partly Cloudy
5:35 PM 73.4 °F 69.8 °F 88% 30.00 in 10.0 mi North 8.1 mph - N/A   Scattered Clouds
5:55 PM 73.4 °F 69.8 °F 88% 30.00 in 10.0 mi North 5.8 mph - N/A   Partly Cloudy
6:55 PM 73.4 °F 68.0 °F 83% 30.02 in 10.0 mi North 5.8 mph - N/A   Clear
7:15 PM 73.4 °F 68.0 °F 83% 30.02 in 10.0 mi NNE 5.8 mph - N/A   Clear
7:35 PM 73.4 °F 66.2 °F 78% 30.02 in 10.0 mi NNE 9.2 mph - N/A   Clear
7:55 PM 73.4 °F 64.4 °F 73% 30.03 in 10.0 mi NNE 5.8 mph - N/A   Clear
8:15 PM 71.6 °F 64.4 °F 78% 30.04 in 5.0 mi NNE 6.9 mph - N/A   Clear
8:35 PM 71.6 °F 64.4 °F 78% 30.05 in 10.0 mi NE 4.6 mph - N/A   Scattered Clouds
8:55 PM 71.6 °F 64.4 °F 78% 30.05 in 10.0 mi NNE 4.6 mph - N/A   Mostly Cloudy
9:15 PM 71.6 °F 64.4 °F 78% 30.06 in 10.0 mi Calm Calm - N/A   Partly Cloudy
9:35 PM 71.6 °F 64.4 °F 78% 30.07 in 10.0 mi NNE 3.5 mph - N/A   Mostly Cloudy
9:55 PM 69.8 °F 64.4 °F 83% 30.07 in 10.0 mi NE 4.6 mph - N/A   Overcast
10:15 PM 69.8 °F 64.4 °F 83% 30.07 in 10.0 mi NE 5.8 mph - N/A   Scattered Clouds
10:35 PM 69.8 °F 64.4 °F 83% 30.08 in 10.0 mi NNE 4.6 mph - N/A   Clear
10:55 PM 69.8 °F 64.4 °F 83% 30.08 in 10.0 mi NE 4.6 mph - N/A   Clear
11:15 PM 68.0 °F 62.6 °F 83% 30.08 in 10.0 mi NNE 5.8 mph - N/A   Clear
11:35 PM 68.0 °F 62.6 °F 83% 30.07 in 10.0 mi ENE 5.8 mph - N/A   Clear
11:55 PM 68.0 °F 62.6 °F 83% 30.08 in 10.0 mi NE 4.6 mph - N/A   Clear